Time,TemperatureF,DewpointF,PressureIn,WindDirection,WindDirectionDegrees,WindSpeedMPH,WindSpeedGustMPH,Humidity,HourlyPrecipIn,Conditions,Clouds,dailyrainin,SoftwareType,DateUTC
2013-01-23 00:02:00,37.0,34.0,30.34,NW,321,0.0,-999.0,89,-99.99,,,-99.99,,2013-01-23 06:02:00,
2013-01-23 00:12:00,37.0,34.0,30.34,NW,321,0.0,-999.0,89,-99.99,,,-99.99,,2013-01-23 06:12:00,
2013-01-23 00:22:00,37.0,34.0,30.34,NW,321,0.0,-999.0,89,-99.99,,,-99.99,,2013-01-23 06:22:00,
2013-01-23 00:32:00,37.0,34.0,30.35,NW,321,0.0,-999.0,89,-99.99,,,-99.99,,2013-01-23 06:32:00,
2013-01-23 00:42:00,37.0,34.0,30.35,NW,321,0.0,-999.0,89,-99.99,,,-99.99,,2013-01-23 06:42:00,
2013-01-23 00:52:00,37.0,34.0,30.34,NW,321,0.0,-999.0,90,-99.99,,,-99.99,,2013-01-23 06:52:00,
2013-01-23 01:02:00,37.0,34.0,30.34,NW,321,0.0,-999.0,90,-99.99,,,-99.99,,2013-01-23 07:02:00,
2013-01-23 01:12:00,37.0,34.0,30.34,NW,321,0.0,-999.0,90,-99.99,,,-99.99,,2013-01-23 07:12:00,
2013-01-23 01:22:00,37.0,34.0,30.34,NW,321,0.0,-999.0,90,-99.99,,,-99.99,,2013-01-23 07:22:00,
2013-01-23 01:33:00,37.0,34.0,30.34,NW,321,0.0,-999.0,90,-99.99,,,-99.99,,2013-01-23 07:33:00,
2013-01-23 01:42:00,37.0,34.0,30.34,NW,321,0.0,-999.0,90,-99.99,,,-99.99,,2013-01-23 07:42:00,
2013-01-23 01:52:00,36.0,33.0,30.33,NW,321,0.0,-999.0,90,-99.99,,,-99.99,,2013-01-23 07:52:00,
2013-01-23 02:02:00,36.0,33.0,30.33,NW,321,0.0,-999.0,90,-99.99,,,-99.99,,2013-01-23 08:02:00,
2013-01-23 02:13:00,36.0,33.0,30.33,NW,321,0.0,-999.0,90,-99.99,,,-99.99,,2013-01-23 08:13:00,
2013-01-23 02:22:00,34.0,32.0,30.33,SSW,196,0.0,-999.0,94,-99.99,,,-99.99,,2013-01-23 08:22:00,
2013-01-23 02:33:00,34.0,32.0,30.33,SSW,196,0.0,-999.0,94,-99.99,,,-99.99,,2013-01-23 08:33:00,
2013-01-23 02:42:00,34.0,32.0,30.33,SSW,196,0.0,-999.0,94,-99.99,,,-99.99,,2013-01-23 08:42:00,
2013-01-23 02:52:00,34.0,32.0,30.33,SSW,196,0.0,-999.0,94,-99.99,,,-99.99,,2013-01-23 08:52:00,
2013-01-23 03:03:00,33.0,31.0,30.32,SSW,196,0.0,-999.0,94,-99.99,,,-99.99,,2013-01-23 09:03:00,
2013-01-23 03:12:00,33.0,31.0,30.32,SSW,196,0.0,-999.0,94,-99.99,,,-99.99,,2013-01-23 09:12:00,
2013-01-23 03:22:00,33.0,31.0,30.32,SSW,196,0.0,-999.0,94,-99.99,,,-99.99,,2013-01-23 09:22:00,
2013-01-23 03:32:00,33.0,31.0,30.32,SSW,196,0.0,-999.0,94,-99.99,,,-99.99,,2013-01-23 09:32:00,
2013-01-23 03:43:00,33.0,31.0,30.32,SSW,196,0.0,-999.0,94,-99.99,,,-99.99,,2013-01-23 09:43:00,
2013-01-23 03:52:00,33.0,31.0,30.32,SSW,196,0.0,-999.0,94,-99.99,,,-99.99,,2013-01-23 09:52:00,
2013-01-23 04:03:00,33.0,31.0,30.32,SSW,196,0.0,-999.0,94,-99.99,,,-99.99,,2013-01-23 10:03:00,
2013-01-23 04:12:00,33.0,31.0,30.32,SSW,196,0.0,-999.0,94,-99.99,,,-99.99,,2013-01-23 10:12:00,
2013-01-23 04:23:00,33.0,31.0,30.32,SSW,196,0.0,-999.0,94,-99.99,,,-99.99,,2013-01-23 10:23:00,
2013-01-23 04:33:00,33.0,31.0,30.32,SSW,196,0.0,-999.0,94,-99.99,,,-99.99,,2013-01-23 10:33:00,
2013-01-23 04:43:00,33.0,31.0,30.32,SSW,196,0.0,-999.0,94,-99.99,,,-99.99,,2013-01-23 10:43:00,
2013-01-23 04:52:00,33.0,31.0,30.32,SSW,196,0.0,-999.0,94,-99.99,,,-99.99,,2013-01-23 10:52:00,
2013-01-23 05:02:00,33.0,31.0,30.33,SSW,196,0.0,-999.0,94,-99.99,,,-99.99,,2013-01-23 11:02:00,
2013-01-23 05:12:00,33.0,31.0,30.33,SSW,196,0.0,-999.0,94,-99.99,,,-99.99,,2013-01-23 11:12:00,
2013-01-23 05:23:00,33.0,32.0,30.33,SSW,196,0.0,-999.0,95,-99.99,,,-99.99,,2013-01-23 11:23:00,
2013-01-23 05:33:00,33.0,32.0,30.34,SSW,196,0.0,-999.0,95,-99.99,,,-99.99,,2013-01-23 11:33:00,
2013-01-23 05:43:00,33.0,32.0,30.34,SSW,196,0.0,-999.0,95,-99.99,,,-99.99,,2013-01-23 11:43:00,
2013-01-23 05:53:00,32.0,31.0,30.35,SSW,196,0.0,-999.0,95,-99.99,,,-99.99,,2013-01-23 11:53:00,
2013-01-23 06:03:00,32.0,31.0,30.35,SSW,196,0.0,-999.0,95,-99.99,,,-99.99,,2013-01-23 12:03:00,
2013-01-23 06:12:00,32.0,31.0,30.35,SSW,196,0.0,-999.0,95,-99.99,,,-99.99,,2013-01-23 12:12:00,
2013-01-23 06:22:00,32.0,31.0,30.36,SSW,196,0.0,-999.0,95,-99.99,,,-99.99,,2013-01-23 12:22:00,
2013-01-23 06:33:00,33.0,32.0,30.36,SSW,196,0.0,-999.0,95,-99.99,,,-99.99,,2013-01-23 12:33:00,
2013-01-23 06:43:00,33.0,32.0,30.36,SSW,196,0.0,-999.0,95,-99.99,,,-99.99,,2013-01-23 12:43:00,
2013-01-23 06:52:00,33.0,32.0,30.37,SSW,196,0.0,-999.0,95,-99.99,,,-99.99,,2013-01-23 12:52:00,
2013-01-23 07:03:00,32.0,31.0,30.38,SSW,196,0.0,-999.0,95,-99.99,,,-99.99,,2013-01-23 13:03:00,
2013-01-23 07:13:00,32.0,31.0,30.38,SSW,196,0.0,-999.0,95,-99.99,,,-99.99,,2013-01-23 13:13:00,
2013-01-23 07:23:00,32.0,31.0,30.38,SSW,196,0.0,-999.0,95,-99.99,,,-99.99,,2013-01-23 13:23:00,
2013-01-23 07:33:00,33.0,32.0,30.38,SSW,196,0.0,-999.0,95,-99.99,,,-99.99,,2013-01-23 13:33:00,
2013-01-23 07:42:00,33.0,32.0,30.38,SSW,196,0.0,-999.0,95,-99.99,,,-99.99,,2013-01-23 13:42:00,
2013-01-23 07:52:00,34.0,33.0,30.39,SSW,196,0.0,-999.0,95,-99.99,,,-99.99,,2013-01-23 13:52:00,
2013-01-23 08:03:00,36.0,34.0,30.39,West,269,0.0,-999.0,91,-99.99,,,-99.99,,2013-01-23 14:03:00,
2013-01-23 08:12:00,36.0,34.0,30.39,West,269,0.0,-999.0,91,-99.99,,,-99.99,,2013-01-23 14:12:00,
2013-01-23 08:23:00,40.0,34.0,30.39,West,263,1.0,-999.0,79,-99.99,,,-99.99,,2013-01-23 14:23:00,
2013-01-23 08:33:00,41.0,34.0,30.39,West,275,0.0,-999.0,76,-99.99,,,-99.99,,2013-01-23 14:33:00,
2013-01-23 08:43:00,41.0,34.0,30.39,West,275,0.0,-999.0,76,-99.99,,,-99.99,,2013-01-23 14:43:00,
2013-01-23 08:53:00,43.0,35.0,30.40,SSW,209,0.0,-999.0,72,-99.99,,,-99.99,,2013-01-23 14:53:00,
2013-01-23 09:03:00,44.0,34.0,30.40,West,264,1.0,-999.0,69,-99.99,,,-99.99,,2013-01-23 15:03:00,
2013-01-23 09:12:00,44.0,34.0,30.40,West,264,1.0,-999.0,69,-99.99,,,-99.99,,2013-01-23 15:12:00,
2013-01-23 09:23:00,47.0,35.0,30.40,SW,233,1.0,-999.0,64,-99.99,,,-99.99,,2013-01-23 15:23:00,
2013-01-23 09:33:00,49.0,37.0,30.41,WSW,240,0.0,-999.0,63,-99.99,,,-99.99,,2013-01-23 15:33:00,
2013-01-23 09:43:00,49.0,37.0,30.41,WSW,240,0.0,-999.0,63,-99.99,,,-99.99,,2013-01-23 15:43:00,
2013-01-23 09:53:00,51.0,38.0,30.41,West,271,1.0,-999.0,61,-99.99,,,-99.99,,2013-01-23 15:53:00,
2013-01-23 10:03:00,54.0,36.0,30.41,West,272,1.0,-999.0,51,-99.99,,,-99.99,,2013-01-23 16:03:00,
2013-01-23 10:12:00,54.0,36.0,30.41,West,272,1.0,-999.0,51,-99.99,,,-99.99,,2013-01-23 16:12:00,
2013-01-23 10:23:00,57.0,39.0,30.41,WNW,287,0.0,-999.0,51,-99.99,,,-99.99,,2013-01-23 16:23:00,
2013-01-23 10:33:00,60.0,40.0,30.41,West,264,0.0,-999.0,48,-99.99,,,-99.99,,2013-01-23 16:33:00,
2013-01-23 10:42:00,60.0,40.0,30.41,West,264,0.0,-999.0,48,-99.99,,,-99.99,,2013-01-23 16:42:00,
2013-01-23 10:52:00,62.0,40.0,30.41,WNW,283,0.0,-999.0,44,-99.99,,,-99.99,,2013-01-23 16:52:00,
2013-01-23 11:03:00,64.0,43.0,30.40,NNE,33,0.0,-999.0,46,-99.99,,,-99.99,,2013-01-23 17:03:00,
2013-01-23 11:12:00,64.0,43.0,30.40,NNE,33,0.0,-999.0,46,-99.99,,,-99.99,,2013-01-23 17:12:00,
2013-01-23 11:23:00,66.0,44.0,30.39,SSW,198,0.0,-999.0,45,-99.99,,,-99.99,,2013-01-23 17:23:00,
2013-01-23 11:33:00,66.0,45.0,30.38,East,80,1.0,-999.0,47,-99.99,,,-99.99,,2013-01-23 17:33:00,
2013-01-23 11:42:00,66.0,45.0,30.38,East,80,1.0,-999.0,47,-99.99,,,-99.99,,2013-01-23 17:42:00,
2013-01-23 11:52:00,66.0,45.0,30.38,ESE,114,1.0,-999.0,46,-99.99,,,-99.99,,2013-01-23 17:52:00,
2013-01-23 12:03:00,66.0,45.0,30.38,ESE,114,1.0,-999.0,46,-99.99,,,-99.99,,2013-01-23 18:03:00,
2013-01-23 12:12:00,66.0,45.0,30.38,ESE,114,1.0,-999.0,46,-99.99,,,-99.99,,2013-01-23 18:12:00,
2013-01-23 12:23:00,67.0,46.0,30.36,East,90,1.0,-999.0,47,-99.99,,,-99.99,,2013-01-23 18:23:00,
2013-01-23 12:33:00,67.0,46.0,30.36,East,90,1.0,-999.0,47,-99.99,,,-99.99,,2013-01-23 18:33:00,
2013-01-23 12:43:00,67.0,46.0,30.35,East,91,1.0,-999.0,46,-99.99,,,-99.99,,2013-01-23 18:43:00,
2013-01-23 12:52:00,66.0,44.0,30.34,East,95,1.0,-999.0,45,-99.99,,,-99.99,,2013-01-23 18:52:00,
2013-01-23 13:03:00,67.0,46.0,30.33,ENE,69,1.0,-999.0,46,-99.99,,,-99.99,,2013-01-23 19:03:00,
2013-01-23 13:13:00,67.0,46.0,30.33,ENE,69,1.0,-999.0,46,-99.99,,,-99.99,,2013-01-23 19:13:00,
2013-01-23 13:23:00,67.0,46.0,30.33,ENE,69,1.0,-999.0,46,-99.99,,,-99.99,,2013-01-23 19:23:00,
2013-01-23 13:33:00,64.0,47.0,30.32,East,83,1.0,-999.0,53,-99.99,,,-99.99,,2013-01-23 19:33:00,
2013-01-23 13:43:00,64.0,47.0,30.32,East,83,1.0,-999.0,53,-99.99,,,-99.99,,2013-01-23 19:43:00,
2013-01-23 13:53:00,63.0,47.0,30.32,East,85,1.0,-999.0,56,-99.99,,,-99.99,,2013-01-23 19:53:00,
2013-01-23 14:03:00,65.0,48.0,30.31,East,90,1.0,-999.0,54,-99.99,,,-99.99,,2013-01-23 20:03:00,
2013-01-23 14:12:00,65.0,48.0,30.31,East,90,1.0,-999.0,54,-99.99,,,-99.99,,2013-01-23 20:12:00,
2013-01-23 14:23:00,64.0,47.0,30.31,East,90,1.0,-999.0,54,-99.99,,,-99.99,,2013-01-23 20:23:00,
2013-01-23 14:33:00,64.0,48.0,30.31,East,86,1.0,-999.0,56,-99.99,,,-99.99,,2013-01-23 20:33:00,
2013-01-23 14:42:00,64.0,48.0,30.31,East,86,1.0,-999.0,56,-99.99,,,-99.99,,2013-01-23 20:42:00,
2013-01-23 14:53:00,64.0,48.0,30.31,ESE,107,1.0,-999.0,57,-99.99,,,-99.99,,2013-01-23 20:53:00,
2013-01-23 15:03:00,63.0,49.0,30.31,SE,128,1.0,-999.0,60,-99.99,,,-99.99,,2013-01-23 21:03:00,
2013-01-23 15:12:00,63.0,49.0,30.31,SE,128,1.0,-999.0,60,-99.99,,,-99.99,,2013-01-23 21:12:00,
2013-01-23 15:23:00,63.0,49.0,30.31,East,86,1.0,-999.0,61,-99.99,,,-99.99,,2013-01-23 21:23:00,
2013-01-23 15:33:00,63.0,50.0,30.31,NE,46,1.0,-999.0,63,-99.99,,,-99.99,,2013-01-23 21:33:00,
2013-01-23 15:42:00,63.0,50.0,30.31,NE,46,1.0,-999.0,63,-99.99,,,-99.99,,2013-01-23 21:42:00,
2013-01-23 15:52:00,61.0,50.0,30.30,ENE,63,1.0,-999.0,68,-99.99,,,-99.99,,2013-01-23 21:52:00,
2013-01-23 16:02:00,61.0,50.0,30.30,ENE,63,1.0,-999.0,68,-99.99,,,-99.99,,2013-01-23 22:02:00,
2013-01-23 16:12:00,61.0,50.0,30.30,ENE,63,1.0,-999.0,68,-99.99,,,-99.99,,2013-01-23 22:12:00,
2013-01-23 16:23:00,60.0,50.0,30.32,South,172,0.0,-999.0,70,-99.99,,,-99.99,,2013-01-23 22:23:00,
2013-01-23 16:33:00,60.0,51.0,30.31,NE,55,0.0,-999.0,71,-99.99,,,-99.99,,2013-01-23 22:33:00,
2013-01-23 16:42:00,60.0,51.0,30.31,NE,55,0.0,-999.0,71,-99.99,,,-99.99,,2013-01-23 22:42:00,
2013-01-23 16:53:00,59.0,51.0,30.31,East,86,0.0,-999.0,74,-99.99,,,-99.99,,2013-01-23 22:53:00,
2013-01-23 17:03:00,59.0,51.0,30.31,SE,127,0.0,-999.0,75,-99.99,,,-99.99,,2013-01-23 23:03:00,
2013-01-23 17:12:00,59.0,51.0,30.31,SE,127,0.0,-999.0,75,-99.99,,,-99.99,,2013-01-23 23:12:00,
2013-01-23 17:23:00,58.0,51.0,30.31,SE,126,0.0,-999.0,78,-99.99,,,-99.99,,2013-01-23 23:23:00,
2013-01-23 17:33:00,57.0,51.0,30.30,SE,126,0.0,-999.0,80,-99.99,,,-99.99,,2013-01-23 23:33:00,
2013-01-23 17:42:00,57.0,51.0,30.30,SE,126,0.0,-999.0,80,-99.99,,,-99.99,,2013-01-23 23:42:00,
2013-01-23 17:53:00,56.0,51.0,30.30,SE,127,0.0,-999.0,83,-99.99,,,-99.99,,2013-01-23 23:53:00,
2013-01-23 18:03:00,55.0,51.0,30.30,SE,127,0.0,-999.0,86,-99.99,,,-99.99,,2013-01-24 00:03:00,
2013-01-23 18:12:00,55.0,51.0,30.30,SE,127,0.0,-999.0,86,-99.99,,,-99.99,,2013-01-24 00:12:00,
2013-01-23 18:22:00,54.0,50.0,30.29,SE,126,0.0,-999.0,87,-99.99,,,-99.99,,2013-01-24 00:22:00,
2013-01-23 18:32:00,53.0,50.0,30.30,SE,127,0.0,-999.0,89,-99.99,,,-99.99,,2013-01-24 00:32:00,
2013-01-23 18:42:00,53.0,50.0,30.30,SE,127,0.0,-999.0,89,-99.99,,,-99.99,,2013-01-24 00:42:00,
2013-01-23 18:53:00,52.0,49.0,30.29,SE,127,0.0,-999.0,90,-99.99,,,-99.99,,2013-01-24 00:53:00,
2013-01-23 19:03:00,51.0,48.0,30.30,SE,126,0.0,-999.0,91,-99.99,,,-99.99,,2013-01-24 01:03:00,
2013-01-23 19:12:00,51.0,48.0,30.30,SE,126,0.0,-999.0,91,-99.99,,,-99.99,,2013-01-24 01:12:00,
2013-01-23 19:23:00,50.0,48.0,30.30,SE,127,0.0,-999.0,92,-99.99,,,-99.99,,2013-01-24 01:23:00,
2013-01-23 19:33:00,50.0,48.0,30.30,SE,127,0.0,-999.0,92,-99.99,,,-99.99,,2013-01-24 01:33:00,
2013-01-23 19:42:00,50.0,48.0,30.30,SE,127,0.0,-999.0,92,-99.99,,,-99.99,,2013-01-24 01:42:00,
2013-01-23 19:52:00,49.0,47.0,30.30,SE,126,0.0,-999.0,93,-99.99,,,-99.99,,2013-01-24 01:52:00,
2013-01-23 20:02:00,48.0,46.0,30.30,SE,127,0.0,-999.0,93,-99.99,,,-99.99,,2013-01-24 02:02:00,
2013-01-23 20:12:00,48.0,46.0,30.30,SE,127,0.0,-999.0,93,-99.99,,,-99.99,,2013-01-24 02:12:00,
2013-01-23 20:22:00,48.0,46.0,30.31,SE,127,0.0,-999.0,93,-99.99,,,-99.99,,2013-01-24 02:22:00,
2013-01-23 20:33:00,47.0,45.0,30.31,SE,127,0.0,-999.0,93,-99.99,,,-99.99,,2013-01-24 02:33:00,
2013-01-23 20:42:00,47.0,45.0,30.31,SE,127,0.0,-999.0,93,-99.99,,,-99.99,,2013-01-24 02:42:00,
2013-01-23 20:52:00,47.0,45.0,30.31,SE,127,0.0,-999.0,93,-99.99,,,-99.99,,2013-01-24 02:52:00,
2013-01-23 21:02:00,47.0,45.0,30.30,SE,128,0.0,-999.0,94,-99.99,,,-99.99,,2013-01-24 03:02:00,
2013-01-23 21:12:00,47.0,45.0,30.30,SE,128,0.0,-999.0,94,-99.99,,,-99.99,,2013-01-24 03:12:00,
2013-01-23 21:22:00,46.0,44.0,30.30,SE,128,0.0,-999.0,94,-99.99,,,-99.99,,2013-01-24 03:22:00,
2013-01-23 21:33:00,46.0,44.0,30.31,SE,128,0.0,-999.0,94,-99.99,,,-99.99,,2013-01-24 03:33:00,
2013-01-23 21:43:00,46.0,44.0,30.31,SE,128,0.0,-999.0,94,-99.99,,,-99.99,,2013-01-24 03:43:00,
2013-01-23 21:52:00,46.0,44.0,30.31,SE,128,0.0,-999.0,94,-99.99,,,-99.99,,2013-01-24 03:52:00,
2013-01-23 22:02:00,46.0,44.0,30.31,SE,128,0.0,-999.0,94,-99.99,,,-99.99,,2013-01-24 04:02:00,
2013-01-23 22:12:00,46.0,44.0,30.31,SE,128,0.0,-999.0,94,-99.99,,,-99.99,,2013-01-24 04:12:00,
2013-01-23 22:22:00,46.0,44.0,30.30,SE,128,0.0,-999.0,94,-99.99,,,-99.99,,2013-01-24 04:22:00,
2013-01-23 22:32:00,45.0,43.0,30.30,SE,128,0.0,-999.0,94,-99.99,,,-99.99,,2013-01-24 04:32:00,
2013-01-23 22:42:00,45.0,43.0,30.30,SE,128,0.0,-999.0,94,-99.99,,,-99.99,,2013-01-24 04:42:00,
2013-01-23 22:52:00,45.0,43.0,30.30,SE,128,0.0,-999.0,94,-99.99,,,-99.99,,2013-01-24 04:52:00,
2013-01-23 23:03:00,45.0,43.0,30.29,SE,128,0.0,-999.0,94,-99.99,,,-99.99,,2013-01-24 05:03:00,
2013-01-23 23:12:00,45.0,43.0,30.29,SE,128,0.0,-999.0,94,-99.99,,,-99.99,,2013-01-24 05:12:00,
2013-01-23 23:22:00,44.0,42.0,30.29,SE,128,0.0,-999.0,94,-99.99,,,-99.99,,2013-01-24 05:22:00,
2013-01-23 23:33:00,44.0,42.0,30.29,SE,128,0.0,-999.0,94,-99.99,,,-99.99,,2013-01-24 05:33:00,
2013-01-23 23:42:00,44.0,42.0,30.29,SE,128,0.0,-999.0,94,-99.99,,,-99.99,,2013-01-24 05:42:00,
2013-01-23 23:52:00,44.0,42.0,30.30,SE,128,0.0,-999.0,94,-99.99,,,-99.99,,2013-01-24 05:52:00,